Flag for China Weather past 2 weeks in Changsha, Hunan, China

Now
68 °F

Light rain. Fog.


Feels Like: 68 °F
Forecast: 65 / 72 °F
Wind: 3 mph from Northwest

Location: Changsha

Current Time: May 23, 2015 at 12:23:05 AM

Latest Report: May 22, 2015 at 11:00 PM


Visibility: 2 mi

Pressure: 29.80 "Hg

Humidity: 88%

Dew point: 64 °F

Location of ChangshaLocation

Historic Weather in Changsha — Graph

°F

Changsha temperature yesterday

Maximum temperature yesterday: 84 °F (at 2:00 PM)
Minimum temperature yesterday: 68 °F (at 11:00 PM)
Average temperature yesterday: 76 °F

Past Weeks' High & Low Weather Summary

 TemperatureHumidityPressure
High90 °F (May 14, 4:00 PM)100% (May 15, 6:00 PM)30.07 "Hg (May 15, 6:00 PM)
Low55 °F (May 12, 2:00 AM)39% (May 12, 3:00 PM)29.59 "Hg (May 18, 2:00 AM)
Average73 °F78%29.78 "Hg
* Reported May 7 11:00 PM — May 22 11:00 PM, Changsha, Weather by CustomWeather, © 2015

Note: Actual official high and low records may vary slightly from our data, if they occured in-between our weather recording intervals... More about our weather records

Advertising

Changsha weather history for previous 24 hours

 ConditionsComfort  
Time TempWeatherWind HumidityBarometerVisibility
11:00 PM
Fri, May 22
68 °FLight rain. Fog.3 mph88%29.80 "Hg2 mi
10:00 PM70 °FLight rain. Fog.8 mph88%29.80 "Hg2 mi
9:00 PM73 °FLight rain. Fog.6 mph83%29.77 "Hg2 mi
8:00 PM73 °FLight rain. Fog.3 mph89%29.77 "Hg2 mi
7:00 PM75 °FLight rain. Fog.3 mph78%29.74 "Hg2 mi
6:00 PM75 °FLight rain. Fog.8 mph78%29.74 "Hg2 mi
5:00 PM79 °FScattered clouds.10 mph65%29.74 "Hg3 mi
4:00 PM81 °FScattered clouds.10 mph66%29.74 "Hg3 mi
3:00 PM82 °FScattered clouds.10 mph62%29.74 "Hg4 mi
2:00 PM84 °FScattered clouds.8 mph55%29.77 "Hg6 mi
1:00 PM82 °FScattered clouds.6 mph55%29.80 "Hg6 mi
12:00 PM82 °FScattered clouds.3 mph55%29.80 "Hg6 mi
11:00 AM82 °FPassing clouds.1 mph55%29.83 "Hg6 mi
10:00 AM81 °FPassing clouds.3 mph62%29.83 "Hg5 mi
9:00 AM77 °FClear.6 mph65%29.83 "Hg4 mi
8:00 AM73 °FPartly sunny.6 mph74%29.83 "Hg4 mi
7:00 AM72 °FFog.6 mph78%29.83 "Hg3 mi
6:00 AM70 °FFog.3 mph88%29.80 "Hg2 mi
5:00 AM70 °FFog.1 mph88%29.83 "Hg2 mi
4:00 AM72 °FClear.1 mph83%29.83 "Hg4 mi
3:00 AM72 °FClear.No wind83%29.80 "Hg4 mi
2:00 AM73 °FClear.1 mph74%29.83 "Hg4 mi
1:00 AM73 °FClear.1 mph74%29.83 "Hg4 mi
12:00 AM73 °FClear.1 mph74%29.86 "Hg4 mi
Weather by CustomWeather, © 2015

See weather overviewHow to use our weather pages